Wind_Gust
10 9 10 11 13 13 13 13 12 13 14 14 13 13 14 13 14 14 14 14 15 15 15 15 16 16 16 15 15 15 16 15 15 16 18 19 19 19 21 20 19 20
10 10 10 11 12 12 12 12 12 12 13 13 13 13 12 13 13 14 14 14 14 14 15 15 15 16 16 16 16 16 16 16 17 17 18 20 19 19 20 20 19 20
10 10 11 12 12 11 12 11 11 12 13 13 12 13 13 12 12 12 13 14 14 14 14 14 15 16 16 16 15 16 17 18 19 17 18 19 21 22 21 20 21 21
10 10 10 11 11 13 12 11 11 12 12 13 13 13 12 12 12 12 12 13 13 13 14 14 15 15 15 15 15 16 15 17 18 18 19 20 21 21 22 21 22 23
9 10 10 10 11 11 11 12 13 13 13 13 12 12 13 13 12 13 13 13 12 13 14 15 14 15 14 14 14 14 15 16 17 18 21 20 20 20 21 22 22 24
9 10 11 11 11 12 12 13 14 14 13 12 12 13 13 13 13 13 13 13 13 13 14 14 14 14 15 14 14 15 15 17 18 19 20 20 20 21 21 21 22 24
9 9 9 10 11 12 12 12 13 13 13 12 12 13 14 14 14 14 14 13 13 14 14 14 14 15 14 14 14 15 16 16 17 19 20 20 20 21 21 20 22 23
9 9 9 11 10 11 12 12 12 12 11 12 11 13 13 14 14 13 13 13 13 14 14 15 15 16 15 14 15 14 15 15 17 19 20 20 20 21 22 21 21 22
9 9 9 9 10 10 12 13 11 11 12 12 13 12 13 14 14 13 14 14 14 14 15 15 16 15 15 15 15 15 16 15 16 17 19 20 20 21 22 21 21 22
9 9 9 9 10 10 11 11 11 11 12 12 12 12 14 12 13 14 14 14 14 16 16 15 16 15 15 15 16 16 16 16 16 16 17 18 19 19 20 21 21 21
9 8 9 9 9 10 10 11 10 10 11 12 11 12 13 13 14 13 14 15 16 16 16 17 16 16 16 16 15 15 15 16 16 16 16 17 17 18 14 19 21 21
9 8 9 9 9 9 10 10 10 10 10 11 12 12 12 13 14 15 15 16 16 16 16 17 17 17 17 17 17 16 16 16 16 16 16 16 17 17 18 18 19 20
9 9 9 9 9 9 9 10 11 10 11 11 11 11 12 12 13 14 14 15 16 17 17 18 18 19 18 17 17 17 16 16 16 16 16 16 16 16 16 16 18 20
10 10 9 9 9 9 10 10 10 10 11 10 11 13 13 13 14 14 13 14 15 16 17 16 18 19 21 21 18 17 16 16 16 16 16 16 16 16 16 16 17 18
11 10 9 10 10 10 10 11 10 10 10 11 11 12 12 12 12 13 13 15 16 16 17 17 18 19 19 20 21 18 16 16 16 17 16 17 17 16 16 17 17 18
12 11 11 9 10 10 10 10 10 10 10 11 11 11 11 11 12 12 13 15 15 16 16 16 17 17 17 18 15 19 16 16 16 16 17 16 16 17 17 17 17 17
12 12 11 11 10 10 9 10 11 10 10 11 11 11 12 12 12 14 14 13 15 15 16 16 17 17 18 15 16 17 18 16 16 16 16 17 17 17 18 17 17 18
13 12 12 11 10 10 10 10 10 10 11 11 11 12 11 11 13 13 13 12 12 14 15 16 16 16 16 16 16 16 15 18 16 16 17 17 17 18 18 18 17 17
13 13 13 12 11 11 10 10 11 11 11 11 12 10 10 14 12 13 13 12 12 14 15 15 15 16 15 16 16 16 16 17 17 16 17 17 17 18 18 19 18 18
14 14 13 13 12 11 10 11 11 12 10 9 9 10 12 12 12 13 12 13 13 13 14 14 16 16 15 16 15 15 15 15 16 15 16 17 18 19 19 19 19 19
15 15 14 14 13 11 11 11 11 10 10 9 10 11 12 12 11 12 12 12 12 11 12 14 16 17 15 15 14 15 15 14 16 15 16 16 17 18 19 20 20 20
16 15 15 14 13 12 12 12 11 10 10 9 10 10 10 10 10 11 12 12 11 11 12 14 15 16 15 15 15 16 20 14 14 15 15 16 17 17 19 21 21 21
17 17 16 15 14 13 12 11 11 11 9 9 11 10 11 11 11 11 10 11 12 13 13 13 15 16 15 14 15 17 16 16 14 16 15 15 17 16 16 19 22 23
18 18 17 16 14 14 13 11 10 10 10 8 11 11 11 10 9 10 11 12 12 13 14 12 14 15 16 15 15 17 18 16 14 15 15 15 15 15 15 16 20 25
19 18 17 16 15 14 13 12 11 11 11 9 9 10 10 9 9 11 11 11 12 11 13 13 14 13 14 14 15 16 19 16 16 15 15 16 15 14 14 15 16 18
19 18 17 17 16 15 14 12 11 11 11 10 9 9 10 9 9 10 11 11 10 11 11 13 13 15 17 14 14 16 18 20 16 16 16 15 14 15 14 14 15 16
Wind_Speed
3 3 3 4 5 4 5 5 4 4 5 4 4 4 5 5 6 6 6 6 7 6 7 7 7 7 7 6 7 6 6 6 6 7 8 9 9 10 10 11 10 9
3 3 3 3 4 4 4 4 5 4 4 5 4 4 4 5 5 5 6 6 6 6 7 6 7 7 7 6 7 6 6 7 8 7 8 11 10 10 11 12 11 10
3 3 4 5 4 4 4 4 4 4 4 4 5 4 4 4 5 5 5 6 6 6 6 6 7 7 7 6 6 6 6 8 9 9 9 9 10 10 11 10 10 12
3 3 3 4 4 5 4 4 4 4 4 4 5 4 4 4 4 4 4 5 5 5 6 6 6 6 7 7 6 6 7 7 8 9 10 10 10 10 11 10 11 12
2 2 3 3 4 4 4 4 5 5 5 5 5 4 5 5 4 4 4 4 4 5 5 6 6 6 6 6 6 6 6 7 8 9 10 10 10 9 9 10 11 13
2 2 3 4 4 4 4 5 5 5 5 5 5 5 5 5 5 5 5 5 4 5 5 5 6 6 6 6 6 6 6 7 8 10 10 10 10 10 9 10 12 12
2 2 2 3 4 4 4 5 5 5 5 4 4 5 6 5 6 5 5 5 5 5 5 5 6 6 6 6 6 6 6 7 8 9 10 9 10 11 11 10 11 12
2 2 2 3 3 4 4 4 5 5 4 4 4 5 5 6 6 5 5 5 5 5 5 6 6 6 6 6 6 6 6 6 7 9 9 10 9 11 11 10 11 12
2 2 2 2 3 4 5 4 4 4 4 4 5 4 5 5 5 5 5 5 5 5 6 6 6 6 6 6 6 7 7 6 7 8 9 10 10 10 11 11 11 11
2 2 2 2 2 3 4 4 4 3 4 4 4 4 5 5 5 5 5 5 5 6 6 6 7 6 6 6 7 7 7 7 7 7 8 9 9 10 10 10 11 11
2 2 2 2 3 3 4 4 3 3 3 4 4 4 5 5 5 5 5 6 6 7 7 7 7 7 7 7 6 6 7 7 7 7 8 8 8 9 8 10 10 11
2 2 2 2 2 2 3 3 3 3 3 3 4 4 4 5 6 6 6 6 6 7 7 8 8 8 7 7 7 7 7 7 7 7 8 8 8 8 8 8 9 10
3 2 2 2 2 2 2 2 3 3 3 3 3 3 4 4 5 5 5 6 6 7 7 8 9 9 8 8 7 7 7 7 7 7 8 7 8 8 7 7 9 9
3 3 3 2 2 1 2 3 2 2 2 2 3 3 4 5 5 5 4 5 6 6 7 7 8 9 10 10 8 7 7 7 7 7 7 8 8 7 7 7 8 9
3 3 2 2 1 1 2 2 2 2 2 2 2 3 3 4 4 5 5 5 6 6 7 7 7 8 8 9 10 9 7 7 7 8 8 8 8 8 7 8 8 8
4 3 3 2 1 1 2 2 2 2 2 2 2 2 3 3 4 4 4 5 6 6 7 6 7 6 10 14 11 9 7 7 7 7 8 7 7 7 7 8 8 8
4 4 3 3 2 1 1 1 2 2 2 2 3 3 2 2 3 4 5 5 5 5 6 6 6 6 12 11 12 14 10 7 7 7 7 8 8 8 8 8 8 8
4 4 4 4 3 2 2 2 1 1 2 2 2 2 2 2 2 4 4 4 4 5 5 6 6 9 11 11 11 13 12 8 7 6 7 7 7 8 8 8 8 8
5 5 5 4 3 3 2 1 2 2 2 2 3 2 2 2 3 3 4 4 4 5 5 6 6 9 11 11 11 13 13 12 6 7 7 8 8 8 8 9 8 8
6 5 5 5 4 3 2 2 2 3 2 2 2 2 2 2 3 3 3 4 4 4 5 5 7 9 11 11 11 12 13 12 6 6 7 8 8 9 8 9 9 8
6 6 6 5 5 4 3 3 3 3 2 2 2 2 2 2 2 3 3 3 3 3 4 5 6 10 10 12 12 12 13 12 6 5 6 7 7 9 9 10 10 9
7 7 6 6 5 4 4 4 3 3 3 2 2 2 2 2 2 2 3 3 3 3 4 5 6 10 11 11 13 14 17 4 5 5 6 6 6 7 9 10 10 10
8 7 7 6 6 5 4 4 3 3 3 2 2 1 2 2 2 2 2 3 4 4 4 5 6 10 11 12 13 14 13 5 4 5 5 6 7 5 7 9 10 11
8 8 8 7 6 5 5 4 3 3 3 1 1 2 2 2 1 2 2 3 4 5 6 4 6 9 12 12 13 14 13 6 4 5 5 5 5 5 5 6 10 16
9 8 8 7 7 6 5 5 3 3 3 2 2 2 2 1 1 2 2 3 4 4 5 5 6 7 11 12 13 13 12 6 5 4 5 5 4 4 4 5 5 10
9 9 8 7 7 7 6 5 3 3 3 3 2 2 2 2 0 2 2 3 2 2 3 5 5 6 9 11 12 13 14 9 5 4 4 4 4 4 4 4 6 6
Wind_Direction
17 18 31 32 30 27 23 21 26 45 37 34 26 26 13 11 2 356 356 353 352 356 0 360 2 5 7 19 24 25 31 23 25 19 20 17 20 19 16 11 9 6
39 33 28 26 35 28 32 19 29 28 46 39 28 20 17 5 4 355 352 346 349 356 356 1 3 5 10 16 18 22 27 31 33 27 26 22 20 19 19 17 15 12
35 45 43 31 26 30 29 33 30 34 42 38 31 18 7 7 351 357 348 346 346 351 357 0 3 7 11 15 16 25 25 27 30 23 30 27 25 24 22 20 20 19
53 39 36 39 22 18 24 33 43 39 34 33 26 5 5 358 346 349 344 343 347 350 354 360 3 5 7 13 13 23 24 30 23 23 29 30 26 26 21 22 23 25
49 51 44 35 27 20 22 29 36 41 41 36 26 7 11 4 352 354 349 348 348 352 355 360 3 5 3 14 13 19 20 25 19 21 27 27 29 22 20 20 21 25
47 44 38 34 29 19 33 32 28 36 36 41 22 13 12 8 2 0 358 350 359 353 1 5 7 9 5 9 16 19 19 19 17 19 25 23 27 30 23 21 21 25
74 73 44 48 28 30 30 39 33 27 33 28 30 18 11 10 11 8 3 357 360 7 5 11 10 16 9 3 11 17 19 16 17 18 19 21 18 25 26 22 20 22
88 79 54 37 36 32 30 42 34 30 24 37 30 22 14 10 14 12 3 8 11 12 17 17 14 20 13 8 9 5 14 11 10 13 17 19 16 19 21 23 25 22
100 88 69 55 43 35 31 30 36 29 25 27 25 17 27 16 17 13 16 14 23 25 24 20 20 19 17 13 11 6 3 10 7 7 9 12 14 15 15 16 23 24
96 91 78 53 52 50 32 27 25 25 27 25 25 21 27 26 23 14 20 24 22 29 30 25 24 20 21 16 15 4 3 3 2 7 3 6 10 13 9 15 18 21
101 108 98 67 48 38 31 27 27 28 27 24 26 34 28 23 30 24 16 29 24 25 27 26 22 19 18 18 21 15 10 6 2 3 2 5 5 10 9 13 16 19
111 106 100 83 49 46 32 26 25 23 31 41 23 26 29 30 29 28 14 24 30 29 28 27 24 18 16 15 19 19 17 14 8 6 8 7 7 8 9 12 18 18
106 89 88 86 62 37 20 28 30 21 18 41 25 20 22 28 29 31 25 23 30 31 33 31 27 20 13 10 15 20 20 18 17 11 16 17 13 15 13 19 21 23
111 106 102 82 61 43 33 24 21 39 29 27 20 23 22 24 22 21 27 33 34 35 37 32 31 25 16 6 3 18 21 23 21 15 17 23 22 21 17 20 30 32
122 108 103 111 112 69 37 35 35 33 25 42 27 38 17 18 18 15 23 28 44 42 41 39 34 28 19 358 349 357 22 27 28 20 22 26 23 25 23 21 26 38
125 127 126 112 121 86 57 38 40 43 42 45 41 28 31 19 13 15 15 27 37 46 46 40 36 34 359 346 341 338 353 25 29 28 29 26 25 25 26 25 26 28
137 123 131 136 111 94 92 77 60 51 47 52 47 32 26 21 12 23 20 21 34 45 48 50 41 20 347 343 340 343 337 14 22 28 25 29 30 26 24 20 20 27
142 137 131 122 149 123 102 80 75 68 68 58 51 49 34 34 33 20 22 25 29 45 50 50 48 18 345 344 344 341 340 341 33 24 26 31 27 24 28 20 19 25
148 144 129 138 136 122 106 109 83 78 72 62 59 41 34 45 37 22 24 26 31 45 46 45 46 22 346 347 340 338 334 332 44 23 29 36 27 30 28 24 18 20
156 144 138 134 136 133 138 118 102 77 67 68 74 75 57 54 52 36 27 30 23 39 54 44 36 7 345 348 337 333 325 318 39 26 37 37 34 30 30 22 19 18
160 148 142 142 144 139 136 120 101 107 95 83 68 54 41 46 50 53 35 21 21 27 52 50 42 6 352 345 339 327 323 300 43 32 38 43 40 39 36 27 20 16
163 151 145 150 151 147 146 131 126 111 98 85 72 66 49 48 63 43 38 33 23 26 44 55 57 21 355 349 342 339 322 324 35 45 44 44 42 48 47 35 26 15
165 157 154 157 154 153 143 135 136 125 115 100 89 72 64 59 55 40 27 27 23 28 30 53 49 24 3 356 349 345 331 22 24 42 40 49 45 38 60 53 37 23
168 162 159 159 159 156 138 138 141 131 126 123 102 101 89 73 43 68 47 42 32 34 11 25 50 39 13 0 350 348 329 339 23 45 36 31 62 43 45 75 72 53
169 166 161 161 163 142 142 147 153 141 128 143 128 123 124 146 19 81 68 65 50 38 4 358 48 47 23 1 354 350 344 348 18 38 37 33 24 57 51 39 83 74
169 167 163 165 157 145 150 148 141 142 146 147 155 174 132 99 189 86 64 65 49 32 43 20 38 47 27 2 4 353 354 340 36 6 31 32 33 22 42 50 42 50